ARIANE 5 R/B, 33057

Orbit data source: Space-Track

ARIANE 5 R/B, 33057 is space debris in HEO originally from a launch on Thu, 12 Jun 2008 UTC launched from the French Guiana (FRGUI). Debris objects in space refer to the collection of defunct objects orbiting the Earth. Examples of debris include non-operational satellites, rocket bodies, and fragments generated from explosions, collisions, or faulty payload assembly.

Loading next visibility...
Identifier
33057, 2008-030C
Orbit
HEO
Country
Flag of FRFR
Related business
Manufacturer
EADS/LV
Mission
Spacecraft
Bus & Motor
ESC-A, Unknown motor
Mass
~5,000 kg wet, ~5,000 kg dry
Launch date (UTC)
2008-06-12 (17 years ago)
Launch vehicle
Unknown
Launch site
French Guiana (FRGUI)
Object type
Payload
Rocket body
Debris
Shape & HBR
Cyl + 1 Nozzle, 3.5 m
Radar Cross Section
41.627 m², Large (>1 m²)

Expand to show TLE details & history
Last TLE update: 13 hours ago

TLE from 13 hours ago
0 ARIANE 5 R/B
1 33057U 08030C   25288.91696405  .00002614  00000-0  11438-2 0  9996
2 33057   1.5421 110.1715 7028326  42.5840 354.5147  2.58961879152888
Epoch: 2025-10-15T22:00Z
TLE epoch observation values (Epoch: 2025-10-15T22:00:25.693Z)
Latitude
0.00009°
Longitude
115.94483°
Altitude
1,069.751 km
Speed
9.446 km/s
True Right ascension
07h 22m 56s
True Declination
0° 00' 00"
Sunlit
Object was in daylight at epoch
Visualization orbit readout
Latitude
Unknown
Longitude
Unknown
Altitude
Unknown
Speed
Unknown
Apparent Right ascension
Unknown
Apparent Declination
Unknown
Sunlit
N/A
Visualization observer readout
Local Sidereal Time
05:43:40
Azimuth
Unknown
Elevation
Unknown
Doppler factor
Unknown
Orbital elements
Apogee altitude
31,774.33 km
Perigee altitude
279.986 km
Semi-major axis
22,405.295 km
Eccentricity
0.70283
Inclination
1.5421°
RAAN
110.1715°
Arg. of periapsis
42.584°
True anomaly
318.93187°
Mean anomaly
354.5147°
Eccentric anomaly
342.21376°
Mean motion
0.64717 °/min
Orbital period
556.27 mins
BSTAR
0.0011438
Loading maneuver chart data...
Computing Atmospheric mass density...
Loading historical data...
Loading historical data...
Loading historical data...
Loading historical data...
Loading historical data...
Loading historical data...
Loading historical data...

Documentation

Showing up to 5 results
|